Location: Newark
(43.6583°N, 1.6617°E)
Time: 16:13:11
(UTC+00:00)

Vanguard 2 Rocket - Pass Details

Date: 27 August 2019
Orbit: 554 x 3327 km, 32.9° (Epoch: 17 September)

Event Time Altitude Azimuth Distance (km) Brightness Sun altitude
Exits shadow 01:23:42 38° 152° (SSE) 2,812 9.0 -32.5°
Maximum altitude 01:23:47 38° 151° (SSE) 2,819 9.0 -32.5°
Drops below altitude 10° 01:37:28 10° 92° (E) 5,632 11.2 -31.3°
Sets 01:43:02 0° 86° (E) 6,971 11.9 -30.8°
